Darstellungsparameter: Aktuell verwendete Einstellungen:
Skalierung der Graphiken ... ?
xyx+y,   Skalierungsfaktor:      Skalierung: Modus: x, Faktor: 1
Darstellungszeitraum ... ?
Vom - - bis: - -   Zeitraum: 23.09.2017 - 22.09.2020
Min/Max/Avg-Anzeige ... ?
Zeige MMA aktuell
Zeige MMA Monat
Zeige MMA alles
Zeige --A aktuell
Zeige --A Monat
Zeige --A alles
Keine MMA-Anzeige
MMA:
Keine MMA-Graphiken
MMA-Basis: 23.09.2017 - 22.09.2020
Quicknavigation für Darstellung... ?
Tage:      1T, 2T, 3T, 5T -1T -2T -3T -5T +1T +2T +3T +5T
Wochen: 1W, 2W, 3W -1W -2W -3W +1W +2W +3W
Monate: 1M, 3M, 6M -1M -3M -6M +1M +3M +6M
Jahre:    1J, 3J, 5J, 10J -1J -3J -5J -10J +1J +3J +5J +10J
Nutze für die Darstellung ... ?
Originaldaten oder ...
Mittelwerte Minima Maxima auf...
Stundenbasis Tagesbasis Wochenbasis
Monatsbasis Jahresbasis      Datenbasis: Mittelwerte auf Monatsbasis
Darstellen als:
Statistik (Auto) Statistik J:M      Darstellung:
Zur Graphik,    zurück zur Übersicht aller Sensoren.
 
Tabellarische Datenbersicht: ?
 
Sensor: Nr:Datum:Temp:Feuchte:
Aussen-T/F 1 01-09-2017 00:00:00 13.44522 C 37.8506 %
2 01-10-2017 00:00:00 11.48467 C 37.2266 %
3 01-11-2017 00:00:00 5.59933 C 40.9328 %
4 01-12-2017 00:00:00 3.75323 C 39.8739 %
5 01-01-2018 00:00:00 5.36848 C 35.8409 %
6 01-02-2018 00:00:00 -1.17859 C 29.8779 %
7 01-03-2018 00:00:00 4.23042 C 31.3690 %
8 01-04-2018 00:00:00 13.19128 C 26.5381 %
9 01-05-2018 00:00:00 16.64449 C 26.4492 %
10 01-06-2018 00:00:00 19.40525 C 25.3293 %
11 01-07-2018 00:00:00 21.89989 C 23.1748 %
12 01-08-2018 00:00:00 20.62868 C 24.0022 %
13 01-09-2018 00:00:00 14.91236 C 29.7514 %
14 01-10-2018 00:00:00 10.54107 C 38.6585 %
15 01-11-2018 00:00:00 5.88289 C 45.9744 %
16 01-12-2018 00:00:00 4.73686 C 44.0385 %
17 01-01-2019 00:00:00 1.5978 C 43.1454 %
18 01-02-2019 00:00:00 3.65451 C 41.1675 %
19 01-03-2019 00:00:00 7.39063 C 33.8869 %
20 01-04-2019 00:00:00 10.58247 C 31.7733 %
21 01-05-2019 00:00:00 12.38287 C 32.8107 %
22 01-06-2019 00:00:00 20.835 C 27.2494 %
23 01-07-2019 00:00:00 20.44202 C 26.3419 %
24 01-08-2019 00:00:00 19.51613 C 32.8091 %
25 01-09-2019 00:00:00 14.94058 C 25.1143 %
Sensor: Nr:Datum:Temp:Feuchte:
Aussen-T/F 26 01-10-2019 00:00:00 11.2634 C 29.4072 %
27 01-11-2019 00:00:00 5.33172 C 33.1655 %
28 01-12-2019 00:00:00 4.23291 C 34.9906 %
29 01-01-2020 00:00:00 4.55685 C 35.5768 %
30 01-02-2020 00:00:00 6.22909 C 34.4696 %
31 01-03-2020 00:00:00 7.24858 C 33.5169 %
32 01-04-2020 00:00:00 12.24417 C 29.2609 %
33 01-05-2020 00:00:00 14.23692 C 30.6570 %
34 01-06-2020 00:00:00 18.59375 C 31.6620 %
35 01-07-2020 00:00:00 20.1657 C 29.0847 %
36 01-08-2020 00:00:00 21.81745 C 30.0045 %
37 01-09-2020 00:00:00 16.94687 C 32.4981 %
Sensor: Nr:Datum:Temp:Feuchte:
G-T/H 1 01-09-2017 00:00:00 15.81583 C 70.5583 %
2 01-10-2017 00:00:00 13.97215 C 75.4439 %
3 01-11-2017 00:00:00 10.18211 C 71.1925 %
4 01-12-2017 00:00:00 8.65464 C 70.0728 %
5 01-01-2018 00:00:00 9.24124 C 71.4843 %
6 01-02-2018 00:00:00 6.11414 C 63.0604 %
7 01-03-2018 00:00:00 7.82191 C 65.7965 %
8 01-04-2018 00:00:00 13.46933 C 63.2619 %
9 01-05-2018 00:00:00 16.5825 C 62.9239 %
10 01-06-2018 00:00:00 19.57993 C 64.3928 %
11 01-07-2018 00:00:00 21.75846 C 57.3052 %
12 01-08-2018 00:00:00 21.21202 C 59.8933 %
13 01-09-2018 00:00:00 17.25044 C 62.6903 %
14 01-10-2018 00:00:00 13.17796 C 70.6921 %
15 01-11-2018 00:00:00 10.29853 C 71.7781 %
16 01-12-2018 00:00:00 9.24784 C 72.2692 %
17 01-01-2019 00:00:00 7.73167 C 71.6374 %
18 01-02-2019 00:00:00 7.52868 C 74.0125 %
19 01-03-2019 00:00:00 9.54697 C 68.6915 %
20 01-04-2019 00:00:00 12.43878 C 60.5053 %
21 01-05-2019 00:00:00 14.02705 C 62.4539 %
22 01-06-2019 00:00:00 20.29078 C 60.8711 %
23 01-07-2019 00:00:00 20.63543 C 57.0358 %
24 01-08-2019 00:00:00 20.06379 C 62.0594 %
25 01-09-2019 00:00:00 16.70926 C 62.8330 %
Sensor: Nr:Datum:Temp:Feuchte:
G-T/H 26 01-10-2019 00:00:00 14.34293 C 73.1018 %
27 01-11-2019 00:00:00 10.35029 C 72.2176 %
28 01-12-2019 00:00:00 9.18533 C 73.1608 %
29 01-01-2020 00:00:00 8.94989 C 73.4400 %
30 01-02-2020 00:00:00 9.65747 C 72.0675 %
31 01-03-2020 00:00:00 10.07904 C 68.2814 %
32 01-04-2020 00:00:00 12.44058 C 59.6102 %
33 01-05-2020 00:00:00 13.02711 C 65.7864 %
34 01-08-2020 00:00:00 21.14171 C 59.2431 %
35 01-09-2020 00:00:00 18.16547 C 58.7623 %

Maximal/Minimal-Werte vom 23.09.2017 - 22.09.2020

Sensor Min Max Avg
Temp
(Aussen-T/F)
-12.4 °C
27-02-2018  07:25:17
44.3 °C
08-08-2020  16:51:17
11.48 °C
Feuchte
(Aussen-T/F)
20 %
23-09-2017  11:37:16
78 %
23-11-2017  06:30:17
32.71 %
Temp
(G-T/H)
2 °C
27-02-2018  07:01:17
29.7 °C
26-07-2018  16:25:17
13.23 °C
Feuchte
(G-T/H)
25 %
29-06-2019  18:04:17
85 %
16-10-2017  15:03:17
66.75 %

Die Daten stammen von einer Davis Vantage Pro 2 Wetter-Station und werden unter Linux mit der Software wview2wettercgi und aufbereitet. Alle Angaben erfolgen ohne Gewähr für ihre Vollständigkeit oder Richtigkeit.
Kontakt: Rainer Krienke krienke@uni-koblenz.de . Meine Webseiten an der Uni Koblenz oder privat.
Version: $Revision: 0.78 $